Wind_Speed
11 8 10 10 12 6 5 7 1 7 9 17 12 14 13 4 18 19 13 15 8 7 4 7 10 6 1 10 11 14 11 18 14 11 10 11 9 10 4 4 2 3 2 3
10 11 9 11 8 15 10 11 17 14 10 17 13 17 15 8 8 13 15 12 7 8 7 4 4 7 5 11 9 11 15 15 13 10 9 10 8 7 8 6 5 6 4 3
11 13 12 12 19 18 19 15 20 20 9 17 17 17 15 7 5 11 14 12 7 5 7 5 6 11 11 11 12 12 12 10 9 6 5 8 4 2 2 3 5 3 4 1
19 17 17 15 9 9 13 5 18 22 21 12 21 7 17 11 5 11 7 2 5 5 4 4 5 6 10 12 13 11 11 10 8 4 5 3 3 3 5 7 6 6 4 13
24 15 19 17 19 18 21 15 13 7 6 2 17 8 4 7 9 7 4 5 8 3 1 2 4 7 7 12 12 10 7 8 5 4 2 3 3 6 3 9 3 1 3 9
25 24 17 18 22 18 18 16 17 7 5 5 7 8 2 10 10 7 3 9 9 6 7 5 6 6 12 12 12 8 8 5 3 3 2 3 6 7 6 5 7 7 4 5
26 28 24 21 17 14 17 14 7 2 1 4 7 4 10 4 7 4 7 11 10 7 8 8 7 10 9 9 10 9 8 7 6 6 5 6 9 10 10 8 10 8 6 7
24 22 21 18 21 19 15 13 12 5 3 3 13 6 3 4 11 13 15 9 11 13 13 11 9 10 10 9 6 6 6 6 5 4 5 6 9 12 13 12 11 11 14 14
20 31 21 21 23 21 23 31 23 11 4 3 8 7 11 11 6 12 13 15 15 14 14 16 17 16 14 12 9 8 6 4 4 5 5 7 11 14 14 11 11 14 17 17
23 29 27 23 25 22 25 28 20 9 1 1 5 19 18 7 16 18 14 13 14 10 16 12 16 17 15 16 12 8 7 6 6 4 8 11 13 12 10 11 11 11 12 13
23 24 26 24 23 20 22 27 21 14 4 8 4 7 19 17 22 18 17 16 7 3 5 8 11 10 12 11 11 9 8 9 4 7 10 14 14 10 8 9 11 11 12 13
23 27 33 30 23 26 33 34 28 19 8 8 8 10 27 27 17 21 18 14 10 7 7 5 6 6 9 11 12 12 11 6 5 9 14 17 15 11 8 8 9 10 11 11
24 32 34 32 29 20 20 27 23 21 24 15 8 8 31 28 24 24 16 18 17 13 6 9 8 7 7 9 10 11 9 7 8 11 14 14 14 12 8 8 8 8 8 9
28 24 19 29 23 20 20 13 16 17 25 30 18 11 28 17 19 28 22 21 23 14 9 11 12 13 9 10 11 12 9 9 9 11 13 17 17 14 11 9 8 8 8 9
28 24 18 22 20 15 17 21 19 14 18 16 20 20 19 12 14 22 19 16 19 15 10 12 14 13 12 15 13 12 11 10 10 10 14 18 19 16 12 10 9 10 11 12
15 17 18 25 27 22 18 23 20 17 18 21 20 22 15 15 13 25 20 15 16 15 8 9 15 14 16 16 13 13 12 11 11 11 14 18 23 19 14 12 11 12 13 15
15 14 15 23 19 17 18 17 14 9 10 10 12 21 24 21 18 27 21 15 14 11 6 8 9 13 16 14 14 15 14 14 14 13 16 19 23 23 17 13 13 13 15 16
14 17 16 20 13 2 7 11 7 10 6 5 14 25 22 18 20 18 17 12 8 9 5 4 9 12 15 17 17 17 16 17 16 15 17 20 24 25 21 17 15 16 18 19
10 10 14 11 12 3 7 6 1 8 15 14 23 31 29 26 24 17 13 11 8 5 4 3 5 10 16 17 17 17 20 21 19 18 19 22 24 25 22 18 18 18 19 18
4 2 5 0 2 3 2 10 5 8 17 15 25 25 25 25 25 22 21 16 20 22 15 6 9 10 12 13 14 17 21 23 22 21 21 23 25 27 22 19 20 19 17 17
5 7 7 9 5 7 5 2 7 6 11 6 8 17 22 19 16 13 11 15 13 30 10 13 12 13 13 10 11 14 19 23 25 24 24 26 27 26 21 20 19 17 16 16
7 8 5 6 1 1 3 5 2 6 4 12 10 9 10 7 14 22 11 9 6 10 14 11 13 15 14 15 18 20 21 23 24 25 26 27 28 23 21 20 17 15 16 17
8 5 5 3 2 7 9 10 12 10 16 12 7 10 8 11 11 4 1 4 6 12 10 13 13 16 18 22 24 23 24 25 23 25 27 27 24 22 21 18 16 15 16 17
8 12 13 20 9 7 5 8 21 14 13 14 16 7 5 4 4 4 1 5 6 9 12 13 16 17 19 20 22 22 21 22 24 26 26 23 22 20 18 18 17 17 16 16
7 8 10 14 10 10 15 13 28 18 19 22 13 12 6 6 7 7 5 4 8 12 13 9 8 10 14 17 18 19 20 23 23 22 22 21 20 17 17 17 17 16 16 16
7 15 10 5 11 14 14 16 18 20 15 14 17 17 12 4 1 3 7 9 7 6 8 10 11 11 12 14 17 18 19 20 21 21 20 18 17 16 17 17 16 14 15 16
Wind_Direction
225 274 299 304 306 270 276 195 13 279 270 257 256 247 250 280 268 254 261 273 295 351 127 135 358 194 187 184 213 209 182 196 191 178 158 170 188 189 215 128 139 205 204 242
246 256 269 268 260 269 246 301 258 244 229 246 255 239 234 219 242 264 273 275 294 327 351 97 48 74 3 224 186 165 163 160 161 158 157 153 171 171 168 198 255 272 284 259
242 214 284 266 282 253 251 271 258 249 264 241 244 229 210 181 223 274 272 260 257 311 4 83 56 86 108 149 151 140 144 152 150 154 181 164 176 173 200 253 265 273 285 207
234 249 253 249 256 256 286 260 267 256 222 191 189 244 227 231 231 247 263 253 284 292 52 87 55 117 127 145 141 136 131 134 117 159 194 178 189 46 356 289 282 297 232 207
229 245 258 242 262 264 257 311 243 245 247 177 210 237 239 241 252 236 273 238 271 249 176 307 157 134 119 137 144 147 129 108 135 124 152 266 273 280 286 347 262 71 185 186
239 254 269 259 260 253 259 288 267 252 177 218 211 235 227 315 315 188 226 244 260 211 195 186 189 162 161 150 135 142 123 141 165 183 258 252 279 297 285 270 302 295 260 192
251 259 269 268 274 247 275 290 258 320 355 196 169 209 350 100 173 207 232 224 243 223 218 217 238 192 168 171 164 151 159 178 199 216 244 290 298 291 292 280 268 268 255 241
254 268 248 257 253 278 295 269 271 207 210 179 187 208 175 228 165 189 216 218 215 202 206 217 237 233 203 212 181 179 191 208 229 267 278 302 304 291 285 279 273 270 263 273
246 256 238 259 263 257 239 245 261 288 264 149 154 124 144 153 183 200 206 199 213 204 215 247 254 256 260 225 215 221 230 253 275 277 292 310 306 297 292 282 259 252 262 269
249 259 248 246 273 272 281 249 261 247 92 91 162 154 182 281 215 210 198 205 220 238 234 239 233 236 230 228 234 248 276 268 280 311 326 322 320 313 297 283 276 272 271 275
241 241 251 270 272 269 279 232 239 250 226 163 166 228 205 189 192 211 208 214 231 290 265 280 232 229 237 239 236 234 247 252 272 317 322 327 327 315 298 279 279 283 284 286
229 235 252 268 283 287 284 234 233 233 240 251 196 199 185 184 203 220 213 250 228 252 282 256 244 245 234 241 245 242 230 236 296 315 328 331 326 321 305 283 270 272 278 282
233 236 240 264 276 284 275 226 232 239 239 231 186 206 188 202 209 213 239 240 256 253 222 224 229 207 216 216 219 225 224 253 297 320 328 339 336 333 313 293 288 282 284 289
227 230 234 243 261 288 301 238 235 254 255 259 229 197 188 203 207 213 221 235 243 232 206 245 254 252 241 228 220 215 237 275 299 323 345 349 346 336 323 311 304 300 304 306
214 224 229 246 263 282 288 291 281 257 281 260 258 219 206 218 211 190 190 221 224 214 214 231 253 236 229 227 226 227 246 276 303 326 344 351 350 340 327 311 306 306 309 309
216 233 247 257 262 261 281 297 264 265 264 298 262 222 176 162 178 196 192 208 226 215 216 248 250 224 222 227 233 238 255 276 293 310 327 341 348 342 330 317 309 305 305 306
219 240 273 265 259 252 278 285 257 290 299 301 214 184 165 167 181 189 209 209 215 193 195 233 222 217 222 228 236 240 255 269 284 299 315 328 339 342 331 320 313 310 307 307
239 235 253 263 255 261 260 266 223 226 285 205 190 169 159 153 156 156 176 188 179 174 140 192 219 223 225 227 231 241 253 265 274 287 302 319 329 335 329 320 315 313 308 310
279 247 232 248 265 202 148 146 100 178 142 170 164 156 157 159 162 169 182 214 221 198 160 259 260 225 231 236 242 248 253 259 269 280 294 306 316 324 322 312 310 310 308 306
251 8 195 131 134 147 160 165 135 119 119 140 152 165 161 169 172 178 202 218 235 228 216 257 272 274 268 262 263 263 261 262 267 274 288 300 308 315 311 305 306 306 304 301
241 258 68 64 71 96 86 163 208 196 166 155 158 193 186 209 232 220 216 205 243 268 215 240 258 272 279 294 285 281 278 277 272 275 287 294 303 309 302 301 302 303 303 302
215 205 127 68 92 42 171 37 114 107 185 145 144 183 193 221 231 218 219 208 231 253 258 265 266 268 283 287 288 287 281 281 273 275 283 293 301 300 297 299 301 300 300 302
242 211 193 147 138 352 313 221 157 117 123 130 144 131 74 57 91 137 41 293 257 248 253 254 257 265 275 281 285 281 275 274 267 274 284 292 293 294 298 298 297 295 298 302
251 249 234 248 302 267 302 182 190 190 181 167 139 111 74 150 269 42 207 227 261 262 251 261 277 279 279 275 272 274 270 268 272 280 286 287 288 291 291 291 294 297 296 295
246 201 232 232 224 261 274 255 220 217 192 187 175 207 181 181 154 160 172 261 258 240 242 254 273 278 271 269 271 272 272 275 280 282 284 286 287 288 287 289 288 287 290 290
203 211 182 270 245 242 248 274 230 213 165 186 192 196 221 257 198 202 203 199 226 268 296 309 313 308 289 279 279 276 275 275 277 278 279 281 282 282 282 283 284 285 284 285
Height
3186 3187 3189 3190 3191 3191 3192 3194 3194 3193 3193 3191 3192 3192 3194 3193 3191 3191 3191 3190 3191 3191 3187 3189 3189 3189 3190 3191 3190 3190 3191 3196 3197 3198 3199 3201 3203 3203 3203 3204 3202 3203 3202 3201
3185 3185 3189 3188 3191 3189 3190 3192 3192 3191 3192 3192 3191 3189 3191 3191 3190 3189 3191 3191 3189 3189 3187 3188 3191 3187 3185 3190 3191 3190 3194 3197 3197 3197 3198 3201 3202 3202 3204 3204 3203 3203 3204 3204
3183 3185 3187 3189 3189 3187 3186 3187 3187 3190 3191 3190 3191 3189 3186 3188 3187 3188 3189 3189 3190 3189 3189 3189 3192 3191 3189 3190 3192 3194 3196 3197 3197 3197 3200 3200 3199 3200 3201 3201 3202 3202 3203 3203
3182 3184 3186 3188 3188 3187 3186 3184 3186 3185 3187 3187 3188 3186 3182 3184 3185 3186 3187 3187 3188 3189 3187 3191 3192 3192 3193 3193 3192 3193 3195 3197 3195 3199 3200 3200 3200 3199 3200 3199 3198 3199 3200 3196
3178 3182 3184 3183 3183 3186 3185 3185 3184 3183 3184 3184 3185 3186 3181 3182 3184 3186 3182 3182 3185 3183 3187 3190 3192 3191 3194 3193 3194 3194 3195 3194 3197 3199 3201 3201 3201 3200 3199 3197 3197 3198 3198 3199
3175 3179 3181 3181 3181 3182 3184 3185 3186 3182 3180 3182 3183 3183 3179 3180 3178 3182 3185 3184 3182 3186 3188 3188 3191 3192 3195 3194 3193 3194 3192 3196 3198 3199 3200 3199 3198 3198 3198 3196 3194 3193 3196 3194
3172 3173 3176 3177 3176 3177 3179 3180 3182 3180 3180 3183 3182 3181 3178 3170 3179 3180 3180 3182 3182 3180 3184 3187 3190 3192 3193 3193 3194 3193 3194 3195 3198 3198 3197 3198 3196 3196 3195 3195 3193 3193 3193 3193
3169 3168 3171 3172 3173 3174 3177 3175 3177 3182 3182 3180 3182 3179 3179 3180 3182 3182 3180 3181 3183 3183 3183 3185 3189 3192 3193 3193 3193 3192 3194 3195 3195 3196 3196 3195 3195 3193 3191 3191 3190 3189 3189 3189
3167 3164 3165 3167 3170 3174 3174 3174 3175 3174 3175 3176 3179 3179 3180 3182 3183 3180 3178 3180 3182 3182 3180 3182 3185 3190 3190 3191 3193 3197 3195 3193 3194 3194 3194 3194 3193 3190 3188 3187 3187 3186 3185 3184
3163 3162 3161 3161 3166 3167 3168 3171 3170 3171 3176 3178 3177 3177 3175 3173 3179 3180 3178 3177 3180 3181 3182 3181 3182 3184 3188 3191 3191 3194 3195 3193 3193 3192 3191 3190 3189 3187 3186 3184 3182 3182 3181 3180
3159 3162 3156 3160 3161 3163 3162 3162 3164 3167 3169 3171 3177 3172 3171 3171 3174 3174 3172 3174 3174 3176 3178 3180 3180 3182 3186 3188 3191 3189 3192 3192 3191 3191 3189 3187 3185 3183 3181 3180 3179 3178 3177 3176
3152 3155 3154 3155 3157 3157 3156 3156 3159 3160 3164 3165 3165 3166 3166 3169 3170 3169 3172 3172 3173 3173 3175 3179 3180 3181 3183 3187 3189 3192 3191 3191 3190 3189 3187 3183 3181 3178 3177 3176 3175 3174 3173 3172
3148 3150 3152 3150 3153 3153 3148 3151 3154 3156 3157 3159 3162 3162 3163 3167 3167 3168 3169 3169 3170 3172 3174 3177 3178 3181 3182 3186 3187 3188 3189 3189 3188 3186 3184 3181 3179 3175 3172 3171 3171 3170 3169 3168
3144 3145 3147 3148 3149 3152 3152 3151 3152 3153 3154 3154 3156 3156 3159 3159 3163 3163 3164 3166 3167 3170 3171 3175 3176 3179 3181 3185 3185 3187 3188 3188 3187 3185 3181 3178 3175 3171 3169 3168 3167 3166 3165 3164
3138 3140 3143 3145 3146 3148 3148 3148 3149 3148 3149 3148 3150 3152 3154 3156 3161 3164 3167 3166 3166 3169 3171 3173 3175 3177 3180 3183 3183 3184 3185 3185 3185 3182 3180 3176 3173 3169 3166 3164 3163 3161 3161 3159
3135 3137 3140 3141 3142 3144 3145 3144 3142 3142 3142 3142 3143 3147 3152 3159 3162 3163 3166 3165 3167 3169 3170 3171 3174 3176 3178 3180 3180 3181 3182 3182 3182 3180 3177 3174 3170 3166 3163 3161 3159 3158 3157 3155
3132 3136 3138 3139 3141 3141 3143 3142 3140 3138 3139 3142 3138 3141 3148 3155 3158 3161 3165 3168 3168 3167 3168 3169 3172 3174 3175 3176 3177 3178 3178 3178 3177 3175 3173 3170 3167 3164 3160 3158 3155 3153 3152 3150
3130 3132 3135 3136 3137 3140 3141 3139 3139 3135 3136 3139 3140 3140 3147 3153 3158 3159 3163 3164 3165 3164 3164 3166 3169 3170 3170 3172 3172 3173 3174 3173 3172 3171 3169 3166 3163 3160 3156 3154 3151 3149 3146 3144
3129 3129 3130 3133 3135 3139 3140 3140 3138 3138 3136 3140 3138 3141 3146 3148 3151 3154 3155 3159 3158 3158 3159 3164 3166 3166 3168 3168 3169 3170 3170 3169 3168 3167 3164 3162 3159 3156 3153 3151 3148 3145 3142 3140
3125 3128 3129 3131 3132 3134 3139 3138 3139 3140 3142 3142 3140 3141 3145 3146 3144 3147 3149 3150 3153 3150 3152 3157 3163 3165 3166 3167 3168 3168 3167 3166 3165 3163 3160 3157 3154 3152 3149 3146 3143 3140 3137 3135
3122 3130 3128 3128 3133 3137 3137 3137 3137 3140 3147 3144 3145 3147 3149 3148 3148 3143 3142 3142 3143 3134 3138 3153 3161 3163 3164 3164 3163 3163 3163 3162 3161 3158 3155 3152 3149 3146 3143 3141 3138 3135 3133 3131
3121 3128 3126 3128 3132 3136 3137 3138 3139 3138 3138 3141 3143 3144 3145 3145 3143 3142 3143 3146 3141 3147 3150 3154 3157 3159 3159 3160 3160 3158 3157 3155 3153 3152 3150 3147 3143 3140 3138 3135 3133 3131 3128 3126
3120 3121 3122 3127 3130 3132 3131 3133 3135 3136 3139 3140 3141 3143 3142 3139 3141 3143 3141 3145 3142 3148 3149 3152 3154 3155 3154 3154 3155 3154 3151 3148 3146 3145 3143 3141 3138 3134 3131 3130 3128 3127 3124 3121
3114 3114 3116 3120 3125 3129 3131 3131 3133 3134 3138 3139 3135 3144 3142 3142 3139 3139 3142 3143 3143 3144 3147 3148 3150 3149 3150 3149 3147 3146 3145 3143 3140 3138 3136 3134 3132 3129 3126 3125 3124 3122 3119 3118
3113 3112 3113 3114 3121 3124 3126 3129 3133 3134 3134 3135 3132 3139 3139 3143 3141 3141 3141 3141 3144 3146 3147 3148 3148 3146 3145 3142 3140 3139 3137 3136 3134 3132 3130 3128 3126 3124 3121 3121 3120 3118 3115 3114
3112 3111 3111 3115 3118 3119 3124 3126 3126 3129 3129 3134 3136 3138 3141 3141 3140 3140 3140 3140 3141 3141 3141 3142 3141 3140 3138 3136 3134 3133 3131 3129 3128 3126 3125 3123 3121 3119 3117 3116 3115 3113 3111 3109